Hourly Data Report for June 20, 2021

MIRAMICHI RCS
NEW BRUNSWICK
Current Station Operator: ECCC - MSC

47°00'34.000" N
65°27'54.000" W
33.00 m
8100989
71744
ACQ

Download Data

Hourly Data (June 2021)
Hourly Data Report for June 20, 2021
TIME
LST
Temp Definition
°C
Dew Point Definition
°C
Rel Hum Definition
%
Precip. Amount Definition
mm

Wind Dir Definition
10's deg

Wind Spd Definition
km/h
Visibility Definition
km
Stn Press Definition
kPa
Hmdx Definition


Wind Chill Definition


Weather Definition


00:00 15.6 14.4 93 LegendMM 19 10   99.65     LegendNANA
01:00 15.0 14.2 95 LegendMM 21 14   99.65     LegendNANA
02:00 14.8 14.0 95 LegendMM 22 12   99.64     LegendNANA
03:00 13.9 13.3 96 LegendMM 24 9   99.64     LegendNANA
04:00 13.7 13.1 96 LegendMM 23 6   99.67     LegendNANA
05:00 13.6 13.1 97 LegendMM 24 10   99.69     LegendNANA
06:00 14.5 13.4 93 LegendMM 25 10   99.70     LegendNANA
07:00 16.1 13.6 85 LegendMM 24 13   99.73     LegendNANA
08:00 18.0 14.0 78 LegendMM 25 14   99.74     LegendNANA
09:00 20.1 14.5 70 LegendMM 27 14   99.78     LegendNANA
10:00 21.3 14.6 66 LegendMM 29 15   99.79 25   LegendNANA
11:00 22.2 15.0 64 LegendMM 27 19   99.82 26   LegendNANA
12:00 21.7 13.8 61 LegendMM 27 18   99.86 25   LegendNANA
13:00 24.0 14.4 55 LegendMM 29 17   99.84 28   LegendNANA
14:00 23.7 14.8 57 LegendMM 28 16   99.84 28   LegendNANA
15:00 25.5 13.1 46 LegendMM 27 19   99.82 28   LegendNANA
16:00 24.7 13.6 50 LegendMM 28 12   99.85 28   LegendNANA
17:00 24.8 15.2 55 LegendMM 24 7   99.87 29   LegendNANA
18:00 25.5 14.4 50 LegendMM 26 15   99.92 29   LegendNANA
19:00 24.8 13.9 51 LegendMM 30 8   99.95 28   LegendNANA
20:00 23.2 15.0 60 LegendMM 27 3   100.01 27   LegendNANA
21:00 19.3 15.4 78 LegendMM 28 7   100.08     LegendNANA
22:00 18.2 14.7 80 LegendMM 23 2   100.12     LegendNANA
23:00 17.2 14.3 83 LegendMM 25 6   100.15     LegendNANA

Notes on Data Quality.

Legend

  • E = Estimated
  • M = Missing
  • NA = Not Available*
  • [empty] = Indicates an unobserved value
Date modified: